Regional Weather Roundup
Issued by NWS

Home | Current Version | Previous Version | Graphics & Text | Print | Product List | Glossary On
Versions: 1 2 3 4 5 6 7 8 9 10 11 12 13 14 15 16 17 18 19 20 21 22 23 24 25 26 27 28 29 30 31 32 33 34 35 36 37 38 39 40 41 42 43 44 45 46 47 48 49 50
000
ASUS43 KLSX 231359
RWRMO

WEATHER SUMMARY FOR MISSOURI
NATIONAL WEATHER SERVICE SPRINGFIELD MO
800 AM CST SUN NOV 23 2014

NOTE: "FAIR" INDICATES FEW OR NO CLOUDS BELOW 12,000 FEET WITH NO
       SIGNIFICANT WEATHER AND/OR OBSTRUCTIONS TO VISIBILITY.
       CURRENT SKY AND/OR WEATHER CONDITIONS ARE NOT AVAILABLE FOR
       CHILLICOTHE AND FARMINGTON.

MOZ001>031-035>038-043-044-053-054-231500-
...NORTHERN AND WESTERN MISSOURI...

CITY           SKY/WX    TMP DP  RH WIND       PRES   REMARKS
KANSAS CTY INT CLOUDY    54  52  93 S10       29.51F
KANSAS C DTWN  RAIN      55  53  93 S7        29.51F FOG
ST JOSEPH      CLOUDY    53  51  93 CALM      29.53R
CHILLICOTHE      N/A     53  51  93 SE5       29.55F
KIRKSVILLE     RAIN      52  51  97 S8        29.57F FOG

$$
MOZ066>068-077>081-088>096-101>105-231500-
...SOUTHWEST MISSOURI...

CITY           SKY/WX    TMP DP  RH WIND       PRES   REMARKS
SPRINGFIELD    CLOUDY    54  52  93 S10       29.57S
JOPLIN         CLOUDY    58  55  90 S9        29.54F

$$
MOZ032>034-039>042-045>050-055>058-069>072-231500-
...CENTRAL MISSOURI...

CITY           SKY/WX    TMP DP  RH WIND       PRES   REMARKS
COLUMBIA       LGT RAIN  53  51  93 SE10      29.60F
JEFFERSON CITY LGT RAIN  53  51  93 E9        29.60F FOG
ROLLA          LGT RAIN  52  50  93 SE14      29.62F
SEDALIA        LGT RAIN  55  52  89 SE12      29.57F FOG
WHITEMAN AFB   CLOUDY    55  53  94 S12       29.54F
OSAGE BEACH    CLOUDY    54  52  94 S7        29.59F

$$
MOZ051-052-059>065-231500-
...EAST CENTRAL MISSOURI...

CITY           SKY/WX    TMP DP  RH WIND       PRES   REMARKS
ST LOUIS INTL  CLOUDY    54  47  77 SE10      29.71F
SPIRIT OF STL  LGT RAIN  52  47  83 NE3       29.68F
ST CHARLES     CLOUDY    49  46  90 E8        29.70F

$$
MOZ072>076-082>087-097>100-106>115-231500-
...SOUTH CENTRAL AND SOUTHEAST MISSOURI...

CITY           SKY/WX    TMP DP  RH WIND       PRES   REMARKS
CAPE GIRARDEAU CLOUDY    57  50  77 SE14      29.74F
FARMINGTON     CLOUDY    54  52  94 E12       29.72F
POPLAR BLUFF   LGT RAIN  54  50  86 SE8       29.71F
WEST PLAINS    LGT RAIN  53  51  93 SE9       29.64F FOG

$$



USA.gov is the U.S. government's official web portal to all federal, state and local government web resources and services.